« Back
NWS Peachtree City, Ga » Text Product » AHN Terminal Aerodrome Forecast


Printer-friendly Version
Current Version              Previous Versions:   1  2  3  4  5  6  7  8  9  

Terminal Aerodrome Forecast

226
FTAK31 PAJN 130520
TAFAHN
TAF
PAHN 130520Z 1306/1406 09012G20KT P6SM -SHRA BKN010 BKN040 OVC080
     FM131500 VRB06KT P6SM VCSH SCT025 OVC050
      AMD LTD TO CLD VIS AND WIND=

USA.gov is the U.S. government's official web portal to all federal, state and local government web resources and services.